Wind_Speed
29 27 24 23 21 20 18 16 14 12 10 11 10 8 12 14 13 12 12 10 11 12 11 12 12 12 14 14 13 13 11 11 10 9 7 3 3 4 3 3 3 4 4
31 28 28 27 25 23 19 17 16 15 13 12 10 11 15 15 15 15 14 15 15 16 17 18 17 16 15 15 14 13 12 12 9 8 7 7 6 4 4 5 5 3 1
34 31 30 28 26 25 22 21 19 17 15 15 12 14 16 16 16 16 17 22 21 21 20 20 19 15 13 13 13 13 13 14 13 12 11 10 7 4 4 3 4 3 3
35 33 33 31 27 28 27 25 22 20 19 20 19 18 18 18 19 20 23 26 25 23 18 14 12 10 14 11 12 14 12 13 13 12 12 11 11 10 9 9 8 6 6
37 37 35 32 30 30 29 29 25 24 24 24 24 21 21 22 23 23 25 27 27 23 20 16 16 15 14 10 11 12 11 12 11 11 11 11 11 10 10 10 10 11 11
38 37 36 34 30 33 32 31 29 28 29 28 23 22 22 23 26 26 24 24 22 21 21 19 19 18 16 15 13 12 12 12 10 10 10 9 9 9 10 10 10 10 10
37 38 38 37 34 34 34 34 31 30 22 26 21 14 14 18 22 25 26 24 23 23 17 16 16 16 18 18 15 10 10 11 13 10 9 9 9 9 9 10 10 10 10
34 37 39 38 36 32 30 31 32 26 18 29 12 12 2 4 8 17 26 29 26 24 19 16 12 17 19 20 18 13 9 10 12 13 8 9 9 8 9 9 10 10 9
32 36 37 36 38 37 34 32 33 35 24 29 27 14 2 3 5 5 17 20 26 24 21 24 23 22 22 19 17 15 12 9 12 12 8 7 6 8 7 8 9 10 10
28 30 32 34 35 36 34 34 35 37 30 24 25 16 13 18 4 3 6 12 17 17 21 22 25 23 18 15 14 12 12 8 11 10 7 5 5 6 6 7 10 10 8
23 26 27 30 31 30 32 32 33 32 29 25 24 20 14 12 16 5 4 7 11 15 18 18 19 17 15 13 14 13 8 4 2 4 2 3 4 7 6 9 10 9 10
21 22 21 22 26 29 31 32 31 32 32 26 30 27 21 11 8 8 3 11 13 13 21 20 19 18 16 14 12 9 5 3 1 6 5 6 7 9 9 9 10 9 10
19 19 18 19 20 21 22 23 24 26 27 26 31 32 27 21 22 15 14 8 5 8 7 17 21 20 19 16 11 8 5 5 4 4 2 4 8 9 8 10 9 10 10
24 20 20 20 18 18 18 20 21 23 23 25 33 33 28 26 23 26 19 19 4 4 7 9 22 21 19 17 12 11 11 6 4 3 4 5 7 5 6 7 7 9 10
19 19 19 20 18 19 19 21 20 21 22 24 26 24 24 23 23 26 25 29 18 4 3 13 10 24 20 17 16 14 12 10 5 4 7 9 7 5 9 8 7 8 8
18 20 21 22 22 21 22 22 22 21 20 21 21 21 22 20 20 21 23 27 22 14 4 8 8 24 26 21 20 16 13 11 9 8 7 8 10 8 6 5 5 6 8
17 22 24 24 23 24 22 20 18 18 20 18 19 20 22 22 20 18 18 18 14 11 10 5 12 18 25 24 22 17 16 13 11 10 8 10 11 6 2 2 4 6 6
18 23 24 22 22 21 19 17 17 19 20 21 20 20 19 19 17 14 13 12 9 10 7 12 17 18 20 24 24 22 20 15 15 12 10 10 8 5 1 3 5 4 6
18 21 22 23 20 17 17 16 17 17 17 16 18 19 17 16 15 14 12 11 11 11 10 13 11 14 18 23 23 22 20 18 15 12 10 11 8 4 5 5 5 7 6
21 22 23 21 20 18 18 17 16 15 15 15 15 16 17 16 15 14 13 10 10 12 12 14 12 15 20 22 23 27 21 20 17 14 13 11 8 5 5 6 6 5 4
24 25 24 21 20 19 20 21 20 20 20 20 17 16 16 15 14 13 12 11 11 13 13 12 11 9 14 21 23 24 21 22 17 17 17 15 11 8 7 3 4 4 5
26 27 23 23 25 26 25 24 22 22 21 21 20 18 17 17 16 15 15 13 12 14 16 16 13 14 17 20 19 25 22 18 6 17 18 17 15 14 7 4 1 3 5
27 29 29 30 30 31 30 29 27 27 28 25 24 23 20 19 19 19 17 15 14 13 14 16 19 17 14 23 24 25 25 23 11 16 20 14 17 18 11 7 4 1 2
36 36 36 34 35 34 29 28 27 27 26 27 26 25 25 23 22 20 18 17 15 15 15 14 16 17 15 19 24 26 27 22 12 15 25 9 16 18 16 10 7 4 2
31 35 38 37 38 36 34 35 33 34 30 29 28 26 24 22 23 19 21 19 17 14 12 11 12 14 18 17 25 24 22 21 7 11 24 12 15 15 17 13 12 7 4
39 39 41 41 42 41 41 40 41 38 35 32 30 27 25 23 19 20 19 19 19 16 13 11 12 15 17 18 19 22 23 24 11 6 21 16 16 14 6 14 16 10 6
Wind_Direction
210 211 214 215 216 220 221 225 228 231 229 222 240 230 197 189 184 177 169 169 160 165 155 141 133 130 130 124 118 107 101 95 91 85 77 57 23 36 5 349 356 356 25
214 219 215 218 218 222 229 229 230 229 223 216 228 204 194 191 187 177 165 162 159 152 142 133 125 118 112 109 106 102 98 89 82 70 72 75 76 69 55 46 41 52 45
219 216 223 221 228 226 220 224 226 224 214 207 209 200 196 190 182 173 170 157 158 159 154 146 136 113 95 91 93 89 82 81 78 67 58 52 51 65 58 44 27 1 348
222 222 222 225 225 229 228 223 223 216 205 200 198 195 194 191 184 177 168 160 156 150 145 145 139 136 107 93 93 93 86 81 74 69 67 64 60 55 49 41 30 7 356
225 225 227 229 227 230 231 231 222 218 199 193 196 198 194 191 184 183 174 169 165 161 153 146 131 121 123 117 113 107 98 92 81 72 62 62 58 59 57 49 37 28 22
228 228 232 233 232 234 234 232 227 215 211 197 190 185 189 191 184 184 179 167 165 161 151 146 138 136 139 137 130 124 117 104 89 80 72 63 62 54 53 48 43 33 26
232 231 234 235 232 236 237 231 221 216 206 191 157 139 159 186 188 183 182 172 163 156 154 155 154 142 141 134 132 128 121 113 106 82 72 67 64 59 46 41 43 40 34
234 234 234 237 233 232 233 227 220 204 193 181 157 124 172 115 150 187 177 170 169 163 158 168 166 168 163 151 134 128 127 113 99 86 72 73 69 57 52 53 51 39 25
236 236 236 237 238 235 230 227 221 208 186 185 176 148 165 176 123 129 181 177 168 167 171 174 168 170 169 162 158 150 139 119 93 87 79 74 77 78 74 61 44 42 28
233 239 239 237 236 232 228 228 218 205 193 179 188 196 181 146 166 146 123 168 168 160 173 164 165 165 161 158 156 158 159 144 102 94 81 73 80 77 69 53 46 35 29
233 239 239 240 233 224 225 220 210 205 203 180 186 161 158 156 147 142 146 152 154 185 178 180 172 175 174 164 156 162 172 199 196 162 130 88 97 102 84 67 57 45 32
222 225 229 225 224 222 219 214 212 209 204 190 190 184 170 161 188 153 133 149 144 159 189 189 187 184 182 176 176 182 232 258 111 112 114 113 97 96 77 63 53 41 35
223 222 222 222 224 222 210 210 206 203 201 197 194 192 195 192 185 162 125 131 140 143 162 194 196 190 187 188 193 205 191 159 111 142 153 139 116 101 97 77 59 43 37
232 230 229 228 223 215 205 198 195 190 193 196 197 201 203 207 213 195 164 151 135 145 150 169 196 195 198 198 195 177 163 150 144 157 138 136 130 127 87 83 69 54 38
242 239 228 217 199 193 186 186 184 192 193 203 205 202 207 202 198 197 196 175 160 156 155 171 171 205 208 202 196 190 176 163 171 177 134 118 136 132 101 87 67 52 48
240 227 211 202 192 193 189 185 183 184 187 199 203 191 186 182 190 196 197 192 182 150 152 146 164 192 203 195 193 187 174 158 163 152 158 148 151 149 116 81 58 35 40
227 217 211 204 201 192 192 187 189 193 194 191 192 192 181 169 163 164 169 171 172 168 129 120 157 182 183 188 189 183 183 177 163 152 150 159 167 172 169 42 46 70 53
225 217 209 207 198 190 195 197 196 191 186 183 179 185 182 177 171 172 184 184 190 198 152 132 141 157 179 199 194 181 181 176 160 155 148 150 160 185 132 50 85 73 53
220 216 211 202 198 204 207 205 202 196 196 195 193 189 186 185 176 182 186 187 187 188 176 157 143 168 162 194 184 182 172 169 163 154 148 151 152 151 103 86 68 62 50
218 213 205 203 210 211 204 198 195 192 185 191 199 193 194 191 185 176 186 182 183 186 180 173 156 165 176 186 182 168 168 172 160 164 157 164 161 140 104 88 65 49 83
220 211 204 208 212 210 206 194 191 183 186 181 190 195 191 187 180 176 181 181 187 190 184 179 162 156 161 165 175 177 169 169 170 173 170 172 169 166 143 116 64 48 71
215 210 210 218 213 210 203 201 198 190 193 191 184 188 189 184 189 178 177 180 197 197 196 184 177 174 179 183 181 173 161 154 157 189 178 182 192 195 194 164 103 55 53
217 220 218 216 218 216 208 202 201 200 190 192 189 190 188 186 191 187 189 188 198 209 223 222 205 187 181 192 192 175 175 176 175 185 183 176 198 208 199 184 186 107 33
222 222 220 219 217 213 210 206 200 200 192 194 195 194 199 192 194 185 184 186 191 204 212 213 220 227 235 216 214 203 199 181 172 183 189 166 197 207 205 195 189 204 280
223 224 223 220 217 214 207 201 198 198 195 197 203 199 204 204 202 194 194 187 188 191 201 209 221 220 224 221 208 198 176 168 146 176 196 191 192 195 198 201 191 211 247
228 228 229 224 222 217 209 201 199 197 194 195 198 199 204 210 207 206 199 191 189 189 192 191 200 204 200 204 207 210 193 177 162 162 200 191 179 179 174 212 208 217 235
Height
807 811 814 815 816 820 821 824 828 830 832 833 833 834 835 836 837 838 838 840 841 843 845 847 850 852 852 852 854 855 856 857 857 858 858 859 860 861 861 861 860 861 861
804 809 809 811 812 816 821 822 825 827 830 832 833 834 835 836 837 838 837 839 841 842 845 846 850 853 854 855 855 856 857 858 858 860 860 860 860 861 862 862 862 861 861
800 801 807 808 813 813 814 818 821 824 826 829 831 834 837 838 839 839 841 840 841 842 844 845 848 852 857 857 858 858 859 860 860 861 861 862 862 862 862 862 863 862 862
796 798 801 803 807 810 813 814 817 819 820 824 826 831 835 838 839 840 840 841 842 843 846 848 848 849 857 861 861 861 862 863 863 862 862 862 863 863 863 863 864 864 863
791 794 796 799 802 805 807 812 813 817 818 820 823 828 831 834 837 840 840 840 841 842 844 849 847 850 853 862 862 863 864 863 864 864 865 864 865 864 864 864 863 863 864
788 791 794 797 800 803 804 807 811 813 815 817 824 825 828 833 834 837 840 840 843 844 847 850 852 849 850 855 863 863 863 863 865 865 867 867 866 866 865 864 863 864 865
787 788 790 792 795 797 799 802 805 810 815 816 822 828 830 833 835 835 837 842 843 842 849 851 853 852 857 854 861 866 866 864 861 866 868 868 867 867 868 867 865 865 865
782 785 786 788 791 793 794 797 800 805 810 813 817 824 830 835 834 835 834 833 839 841 843 847 851 853 855 857 859 864 869 865 864 861 869 868 867 868 868 868 867 865 866
779 780 782 783 785 787 788 790 793 796 801 808 809 812 824 825 833 835 835 835 835 838 841 847 848 854 854 855 856 859 866 870 864 864 869 869 868 868 868 869 868 865 867
775 776 778 779 779 781 782 784 787 790 795 800 806 806 808 806 824 835 838 835 836 839 846 847 848 852 855 856 858 860 863 867 865 865 869 870 869 868 871 870 867 867 868
771 774 774 775 775 775 777 778 783 788 790 793 800 801 808 810 810 822 828 836 837 844 845 849 851 854 856 858 858 861 863 864 863 866 869 870 869 870 871 868 868 870 870
767 768 770 771 771 771 773 773 777 780 783 787 792 797 800 803 810 810 820 826 833 840 843 848 851 852 856 858 860 860 861 863 864 867 868 871 870 869 871 871 871 871 870
767 767 769 770 771 773 771 777 780 771 778 784 791 792 799 803 808 808 815 825 831 839 845 847 849 851 854 855 857 859 861 862 862 865 868 871 871 869 869 870 872 873 872
765 766 768 769 769 772 775 780 781 781 787 788 789 790 795 801 804 807 809 818 830 833 837 842 846 849 850 852 856 858 860 862 864 865 868 872 871 871 871 870 871 872 872
765 768 769 770 771 775 776 778 779 784 785 789 790 787 793 798 800 803 807 813 816 827 832 839 841 845 850 850 854 855 859 860 861 864 867 870 872 872 870 872 874 874 870
761 763 765 768 768 770 772 774 776 781 783 788 789 790 790 794 799 802 806 809 812 816 825 829 833 837 845 848 851 855 858 860 862 864 867 869 872 873 872 873 872 874 872
756 759 763 764 766 768 772 773 776 779 781 787 790 794 796 795 798 805 808 809 813 816 820 828 830 835 841 843 848 851 854 857 860 864 866 868 871 872 871 871 873 871 872
757 758 762 764 765 767 771 774 776 777 779 784 787 794 799 797 798 802 809 809 812 817 821 827 832 835 833 843 844 847 852 857 861 864 866 866 868 870 870 872 874 873 870
757 760 760 762 766 769 772 773 775 778 782 784 789 792 797 798 797 803 808 810 813 818 821 824 830 834 835 845 846 848 853 858 862 864 865 868 869 870 872 871 871 871 874
754 756 759 762 764 767 769 772 776 780 779 785 790 790 796 798 797 800 809 810 814 819 822 826 828 831 836 843 845 848 852 856 859 863 865 867 870 869 871 872 870 873 877
750 752 754 758 761 765 769 768 774 773 781 781 789 793 793 795 797 799 804 809 816 822 824 826 828 833 837 841 843 846 848 854 859 863 865 867 868 870 871 872 872 875 875
747 749 750 755 757 760 761 768 772 772 777 780 783 789 793 792 798 799 802 806 812 817 821 824 828 831 834 838 841 843 848 854 860 862 863 867 866 870 871 872 874 875 875
743 745 745 745 751 758 759 761 764 769 768 777 781 786 790 792 797 797 800 802 809 814 818 819 824 829 832 836 839 842 845 849 852 856 861 865 866 869 871 872 874 875 876
736 735 738 740 745 748 756 762 763 768 768 775 778 781 789 790 795 793 797 800 804 809 814 815 821 826 829 833 838 840 843 847 852 856 860 862 864 867 869 872 873 875 876
732 733 732 736 736 741 744 751 756 761 763 769 777 780 787 790 794 790 794 796 802 807 810 813 819 823 826 829 832 836 842 846 850 854 856 858 862 865 868 870 872 874 874
721 724 726 725 729 731 737 741 749 752 755 764 774 778 782 787 789 792 793 795 800 803 807 810 815 819 823 826 829 832 836 840 845 851 852 856 859 863 867 868 870 872 872